This demonstration page uses our WeatherBlox Daily Observations layout. Learn more.

Left ArrowRight Arrow

Hourly Observations for April 19, 2021

Temp ( °F °C ) Dew Point ( °F °C ) Humidity (%) Winds ( mph kmh ) Pressure ( in mb ) Visibility ( mi km ) Precip ( " mm )
12:53 am 00:53 Cloudy 30 -1.1 26 -3.3 85 85 NW 6 9 30.48 1032 10 16 0.00 0.00
1:53 am 01:53 Mostly Clear 27 -2.8 24 -4.4 89 89 W 6 9 30.48 1032 10 16 0.00 0.00
2:53 am 02:53 Partly Cloudy 26 -3.3 23 -5 88 88 SSW 5 7 30.47 1032 10 16 0.00 0.00
3:53 am 03:53 Cloudy 26 -3.3 24 -4.4 92 92 SW 6 9 30.47 1032 10 16 0.00 0.00
4:53 am 04:53 Cloudy 27 -2.8 24 -4.4 89 89 SW 8 13 30.46 1032 10 16 0.00 0.00
5:18 am 05:18 Cloudy 27 -2.8 24 -4.4 89 89 SW 6 9 30.50 1033 10 16 0.00 0.00
5:53 am 05:53 Cloudy 27 -2.8 25 -3.9 92 92 WSW 9 15 30.45 1031 10 16 0.00 0.00
6:53 am 06:53 Cloudy 28 -2.2 25 -3.9 88 88 WSW 9 15 30.45 1031 10 16 0.00 0.00
7:53 am 07:53 Cloudy 30 -1.1 27 -2.8 88 88 WSW 9 15 30.44 1031 10 16 0.00 0.00
8:08 am 08:08 Cloudy 30 -1.1 27 -2.8 88 88 W 9 15 30.47 1032 10 16 0.00 0.00
8:53 am 08:53 Cloudy 31 -0.6 27 -2.8 85 85 WNW 10 17 30.42 1030 10 16 0.00 0.00
9:53 am 09:53 Cloudy 33 0.6 28 -2.2 82 82 NW 15 24 30.41 1030 10 16 0.00 0.00
10:43 am 10:43 Cloudy 33 0.6 27 -2.8 78 78 NW 17 28 30.44 1031 10 16 0.00 0.00
10:53 am 10:53 Cloudy 34 1.1 28 -2.2 79 79 NW 18 30 30.42 1030 10 16 0.00 0.00
11:50 am 11:50 Mostly Cloudy 37 3 25 -4 60 60 NNW 17 28 30.39 1029 10 16 0.00 0.00
11:53 am 11:53 Mostly Cloudy 37 2.8 25 -3.9 62 62 NNW 20 31 30.40 1029 10 16 0.00 0.00
12:53 pm 12:53 Mostly Cloudy 40 4.4 24 -4.4 53 53 NNW 17 28 30.38 1029 10 16 0.00 0.00
1:53 pm 13:53 Cloudy 40 4.4 23 -5 51 51 NNW 23 37 30.38 1029 10 16 0.00 0.00
2:53 pm 14:53 Cloudy 41 5 21 -6.1 45 45 NNW 20 31 30.38 1029 10 16 0.00 0.00
3:53 pm 15:53 Partly Cloudy 40 4.4 14 -10 35 35 NNW 21 33 30.37 1029 10 16 0.00 0.00
4:53 pm 16:53 Mostly Cloudy 40 4.4 16 -8.9 38 38 NNW 23 37 30.37 1029 10 16 0.00 0.00
5:53 pm 17:53 Cloudy 38 3.3 18 -7.8 44 44 N 21 33 30.40 1029 10 16 0.00 0.00
6:53 pm 18:53 Sunny 36 2.2 18 -7.8 48 48 N 8 13 30.41 1030 10 16 0.00 0.00
7:53 pm 19:53 Sunny 35 1.7 18 -7.8 50 50 N 8 13 30.40 1030 10 16 0.00 0.00
8:53 pm 20:53 Mostly Cloudy 31 -0.6 18 -7.8 59 59 W 5 7 30.42 1030 10 16 0.00 0.00
9:53 pm 21:53 Cloudy 30 -1.1 23 -5 75 75 WNW 8 13 30.43 1030 10 16 0.00 0.00
10:53 pm 22:53 Cloudy 30 -1.1 24 -4.4 79 79 WSW 8 13 30.42 1030 10 16 0.00 0.00
11:53 pm 23:53 Cloudy 32 0 25 -3.9 75 75 WSW 8 13 30.40 1029 10 16 0.00 0.00

Powered by AerisWeather